Everett, WA

4:45 PM PDT on April 29, 2017 (GMT -0700)
Snohomish County

Weather History for KPAE - October, 2013

Change the Weather History Date:

Friday, October 25, 2013

  Actual Average Record
Temperature  
Mean Temperature 48 °F -  
Max Temperature 51 °F 58 °F 67 °F (1966)
Min Temperature 46 °F 41 °F 31 °F (1975)
Degree Days  
Heating Degree Days 17    
Moisture  
Dew Point 45 °F    
Average Humidity 91    
Maximum Humidity 100    
Minimum Humidity 80    
Precipitation  
Precipitation 0.01 in - - ()
Sea Level Pressure  
Sea Level Pressure 30.23 in    
Wind  
Wind Speed 2 mph (SSE)    
Max Wind Speed 7 mph    
Max Gust Speed -    
Visibility 3 miles    
Events Fog    
Averages and records for this station are not official NWS values.
T = Trace of Precipitation, MM = Missing Value Source: NWS Daily Summary

Daily Weather History Graph

Daily Weather History Graph

Search for Another Location

Airport or City:

Trip Planner

Search our weather history database for the weather conditions in past years. The results will help you decide how hot, cold, wet, or windy it might be!

Date:

Astronomy

Oct. 25, 2013 Rise Set
Actual Time 7:43 AM PDT 6:01 PM PDT
Civil Twilight 7:11 AM PDT 6:33 PM PDT
Nautical Twilight 6:35 AM PDT 7:09 PM PDT
Astronomical Twilight 5:59 AM PDT 7:45 PM PDT
Moon 11:20 PM PDT (10/25) 1:34 PM PDT (10/25)
Length of Visible Light 11h 21m
Length of Day
10h 18m
Waning Gibbous, 61% of the Moon is Illuminated
Oct 25
Waning Gibbous
Oct 26
Last Quarter
Nov 3
New
Nov 9
First Quarter
Nov 17
Full

Hourly Weather History & Observations

Time (PDT) Temp. Windchill Dew Point Humidity Pressure Visibility Wind Dir Wind Speed Gust Speed Precip Events Conditions
12:30 AM 46.4 °F - 44.6 °F 93% 30.14 in 0.5 mi Calm Calm - N/A Fog Fog
12:41 AM 46.4 °F - 44.6 °F 93% 30.14 in 0.5 mi Calm Calm - N/A Fog Fog
12:53 AM 46.0 °F - 45.0 °F 96% 30.15 in 0.5 mi Calm Calm - N/A Fog Fog
1:48 AM 46.4 °F - 44.6 °F 93% 30.15 in 0.5 mi Calm Calm - N/A Fog Fog
1:53 AM 46.9 °F - 46.0 °F 97% 30.16 in 0.2 mi Calm Calm - N/A Fog Fog
2:08 AM 46.4 °F - 44.6 °F 93% 30.16 in 0.8 mi Calm Calm - N/A   Mist
2:17 AM 46.4 °F - 44.6 °F 93% 30.16 in 0.5 mi Calm Calm - N/A Fog Fog
2:20 AM 46.4 °F - 44.6 °F 93% 30.16 in 0.2 mi Calm Calm - N/A Fog Fog
2:34 AM 46.4 °F - 44.6 °F 93% 30.16 in 0.5 mi Calm Calm - N/A Fog Fog
2:45 AM 46.4 °F 45.2 °F 44.6 °F 93% 30.17 in 0.2 mi West 3.5 mph - N/A Fog Fog
2:50 AM 46.4 °F 45.2 °F 44.6 °F 93% 30.17 in 0.5 mi West 3.5 mph - N/A Fog Fog
2:53 AM 46.0 °F 44.8 °F 45.0 °F 96% 30.18 in 0.2 mi West 3.5 mph - N/A Fog Fog
3:00 AM 46.4 °F - 44.6 °F 93% 30.17 in 0.5 mi Calm Calm - N/A Fog Fog
3:09 AM 46.4 °F - 46.4 °F 100% 30.17 in 0.2 mi Calm Calm - N/A Fog Fog
3:25 AM 46.4 °F - 44.6 °F 93% 30.18 in 0.2 mi Calm Calm - N/A Fog Fog
3:41 AM 46.4 °F 45.2 °F 44.6 °F 93% 30.18 in 0.5 mi SW 3.5 mph - N/A Fog Fog
3:53 AM 46.0 °F 44.8 °F 45.0 °F 96% 30.18 in 0.5 mi SSW 3.5 mph - N/A Fog Fog
4:06 AM 46.4 °F 45.2 °F 44.6 °F 93% 30.18 in 1.2 mi SSW 3.5 mph - N/A   Overcast
4:25 AM 46.4 °F - 44.6 °F 93% 30.18 in 0.5 mi Calm Calm - N/A Fog Fog
4:53 AM 46.0 °F 44.8 °F 45.0 °F 96% 30.20 in 0.5 mi SW 3.5 mph - N/A Fog Fog
5:06 AM 46.4 °F 45.2 °F 44.6 °F 93% 30.19 in 1.0 mi SW 3.5 mph - N/A   Overcast
5:51 AM 46.4 °F 45.2 °F 44.6 °F 93% 30.19 in 2.0 mi SSW 3.5 mph - 0.01 in   Overcast
5:53 AM 46.0 °F 44.8 °F 44.1 °F 93% 30.20 in 2.0 mi SSW 3.5 mph - 0.01 in   Overcast
6:15 AM 46.4 °F 44.3 °F 44.6 °F 93% 30.20 in 3.0 mi South 4.6 mph - N/A   Overcast
6:53 AM 46.0 °F 44.8 °F 44.1 °F 93% 30.22 in 4.0 mi SW 3.5 mph - N/A   Overcast
7:09 AM 46.4 °F - 44.6 °F 93% 30.21 in 2.5 mi Calm Calm - N/A   Overcast
7:53 AM 46.9 °F - 45.0 °F 93% 30.23 in 2.0 mi Calm Calm - N/A   Overcast
8:00 AM 46.4 °F - 44.6 °F 93% 30.23 in 3.0 mi Calm Calm - N/A   Overcast
8:53 AM 46.9 °F - 45.0 °F 93% 30.25 in 3.0 mi ESE 3.5 mph - N/A   Overcast
9:36 AM 48.2 °F - 46.4 °F 93% 30.25 in 1.0 mi ESE 6.9 mph - N/A   Overcast
9:53 AM 48.0 °F - 45.0 °F 89% 30.27 in 0.5 mi ESE 3.5 mph - N/A Fog Fog
10:00 AM 46.4 °F 45.2 °F 44.6 °F 93% 30.26 in 1.0 mi Variable 3.5 mph - N/A   Overcast
10:53 AM 48.0 °F - 46.0 °F 93% 30.28 in 2.0 mi Calm Calm - N/A   Overcast
11:53 AM 48.0 °F - 45.0 °F 89% 30.29 in 2.0 mi Variable 4.6 mph - N/A   Overcast
12:53 PM 48.9 °F - 45.0 °F 86% 30.29 in 4.0 mi SSE 3.5 mph - N/A   Overcast
1:53 PM 50.0 °F - 45.0 °F 83% 30.30 in 10.0 mi Calm Calm - N/A   Overcast
2:53 PM 50.0 °F - 44.1 °F 80% 30.29 in 10.0 mi South 4.6 mph - N/A   Overcast
3:53 PM 50.0 °F - 45.0 °F 83% 30.30 in 10.0 mi East 3.5 mph - N/A   Overcast
4:00 PM 50.0 °F - 44.6 °F 82% 30.28 in 10.0 mi Calm Calm - N/A   Overcast
4:53 PM 50.0 °F - 45.0 °F 83% 30.30 in 10.0 mi Calm Calm - N/A   Overcast
5:53 PM 50.0 °F - 44.1 °F 80% 30.30 in 10.0 mi ENE 3.5 mph - N/A   Overcast
6:53 PM 48.9 °F - 43.0 °F 80% 30.31 in 10.0 mi East 3.5 mph - N/A   Overcast
7:53 PM 48.0 °F - 43.0 °F 83% 30.32 in 9.0 mi ESE 3.5 mph - N/A   Overcast
8:00 PM 46.4 °F 45.2 °F 44.6 °F 93% 30.31 in 9.0 mi ESE 3.5 mph - N/A   Clear
8:53 PM 46.0 °F 44.8 °F 43.0 °F 89% 30.32 in 6.0 mi ESE 3.5 mph - N/A   Scattered Clouds
9:46 PM 46.4 °F 44.3 °F 44.6 °F 93% 30.32 in 6.0 mi ESE 4.6 mph - N/A   Mostly Cloudy
9:53 PM 46.9 °F - 45.0 °F 93% 30.33 in 6.0 mi East 4.6 mph - N/A   Mostly Cloudy
10:53 PM 48.0 °F - 45.0 °F 89% 30.33 in 6.0 mi ESE 4.6 mph - N/A   Overcast
11:23 PM 46.4 °F 45.2 °F 44.6 °F 93% 30.32 in 6.0 mi East 3.5 mph - N/A   Overcast
11:53 PM 46.0 °F - 43.0 °F 89% 30.33 in 6.0 mi Calm Calm - N/A   Overcast